[Date Prev][Date Next][Thread Prev][Thread Next] - [Date Index][Thread Index][Author Index]

2 Line ISS Keps 2-22



ISS
1 25544U 98067A   05053.32710694  .00011944  00000-0  10130-3 0  8698
2 25544  51.6481 128.3522 0004355 120.4665 323.5227 15.70150653357621
----
Via the sarex mailing list at AMSAT.ORG courtesy of AMSAT-NA.
To unsubscribe, send "unsubscribe sarex" to Majordomo@amsat.org



AMSAT Top AMSAT Home